{"data":{"norad_id":62620,"epoch":"2026-05-25T05:00:02.225376Z","epoch_age_seconds":60289,"freshness":"FRESH","line1":"1 62620U 25009M   26145.20835909  .00087147  00000+0  11829-2 0  9995","line2":"2 62620  97.3923 234.2535 0000918  23.5842 336.5455 15.57340422 75878","mean_motion":15.57340422,"eccentricity":9.18e-5,"inclination_deg":97.3923,"raan_deg":234.2535,"arg_perigee_deg":23.5842,"mean_anomaly_deg":336.5455,"bstar":0.0011829,"rev_number":7587,"period_min":92.465332541147,"perigee_km":394.73602626893,"apogee_km":395.97963992029,"semimajor_km":6773.4948330946,"source":"CELESTRAK","updated_at":"2026-05-25T13:38:03.129060Z"}}